x

Freeport, Tx - 60 Nm South Of Freeport, Tx (42019) Wave Buoy

3:50pm - Wed 30th Jul 2014 All times are CDT. -5 hours from GMT.

  • Sig Wave height 1.3ft
  • Swell Direction
  • Peak Period 4s
  • Average Period 4s
  • Wind
    2mph, 4mph gusts
  • Sea Temp 88°f
  • Air Temp 85°f
  • Sea Pressure 1016mb
  • Freeport, Tx - 60 Nm South Of Freeport, Tx
  • Freeport, Tx - 60 Nm South Of Freeport, Tx

More Historic Weather Station data

Upgrade to MSW Pro to gain access to the past 30 days of data for over 8000 Wavebouys and Weather Stations around the globe.

Join Pro

Comparision Forecast

View Surf forecast
   
Wed 07/30 3:50pm 1.3ft 4s 4s 2 4 mph 1016mb 88f 85f
2:50pm 1.3ft 4s 4s  -  2 mph 1016.6mb 87f 85f
1:50pm 1.3ft 4s 4s 2
mph
1017.2mb 87f 84f
12:50pm 1.3ft 4s 4s 4
mph
1017.6mb 85f 84f
11:50am 1.3ft 4s 4s 4 7 mph 1018mb 84f 83f
10:50am 1.3ft 5s 4s 7
mph
1018.1mb 84f 83f
9:50am 1.3ft 5s 4s 7 9 mph 1017.8mb 83f 83f
8:50am 1ft 5s 4s 9
mph
1017.9mb 84f 83f
7:50am 1ft 5s 4s 7 9 mph 1017.7mb 84f 83f
6:50am 1ft 5s 4s 7 9 mph 1017.5mb 84f 83f
5:50am 1ft 6s 4s 7
mph
1017.2mb 84f 83f
4:50am 1ft 5s 4s 7
mph
1017.3mb 84f 83f
3:50am 1ft 5s 4s 7
mph
1017.3mb 84f 83f
2:50am 1ft 5s 4s 7 9 mph 1017.1mb 84f 83f
1:50am 1ft 5s 4s 7 9 mph 1017.4mb 84f 83f
12:50am 1ft 5s 4s 7 9 mph 1017.7mb 84f 84f
Tue 07/29 11:50pm 1ft 5s 4s 7
mph
1017.5mb 84f 84f
10:50pm 1.3ft 5s 4s 4 7 mph 1017.3mb 84f 83f
9:50pm 1.3ft 5s 4s 4 7 mph 1017.1mb 85f 83f
8:50pm 1.3ft 5s 4s 7 9 mph 1016.6mb 86f 83f
7:50pm 1.3ft 5s 4s 2 4 mph 1017.1mb 87f 84f
6:50pm 1.3ft 5s 4s 2
mph
1017.3mb 88f 85f
5:50pm 1.3ft 4s 4s  -  2 mph 1017.5mb 88f 85f
4:50pm 1.3ft 5s 4s 2 4 mph 1018mb 88f 84f
3:50pm 1.3ft 5s 4s 2
mph
1018.2mb 87f 84f
2:50pm 1.3ft 5s 4s 4 7 mph 1018.3mb 87f 83f
1:50pm 1.6ft 6s 4s 4 7 mph 1018.9mb 86f 83f
12:50pm 1.6ft 5s 4s 4
mph
1019.5mb 86f 83f
11:50am 1.6ft 5s 4s 2 4 mph 1019.8mb 85f 83f
10:50am 1.6ft 6s 4s 4
mph
1020.1mb 84f 83f
9:50am 1.6ft 6s 4s 4 7 mph 1019.5mb 83f 83f
8:50am 2ft 5s 4s 7
mph
1019.2mb 83f 83f
7:50am 2ft 5s 4s 9
mph
1018.9mb 83f 83f
6:50am 1.6ft 5s 4s 9 11 mph 1018.5mb 83f 83f
5:50am 2ft 6s 4s 11 13 mph 1017.8mb 84f 83f
4:50am 2ft 6s 4s 13 16 mph 1017.2mb 84f 83f
3:50am 1.6ft 5s 4s 13 18 mph 1017mb 84f 83f
2:50am 2ft 6s 4s 13 16 mph 1017mb 84f 83f
1:50am 1.6ft 5s 4s 11 13 mph 1017.4mb 84f 83f
12:50am 1.6ft 5s 4s 11 13 mph 1017.8mb 84f 83f
Mon 07/28 11:50pm 2ft 6s 4s 11 13 mph 1018mb 84f 84f
10:50pm 1.6ft 5s 4s 9 11 mph 1018.5mb 84f 84f
9:50pm 2ft 6s 5s 9 11 mph 1018.8mb 85f 84f
8:50pm 2ft 5s 5s 7 9 mph 1018.7mb 85f 84f
7:50pm 2ft 5s 4s 7 9 mph 1017.9mb 85f 84f
6:50pm 2ft 6s 5s 7 9 mph 1017.7mb 86f 84f
5:50pm 2ft 5s 5s 4 7 mph 1018.1mb 86f 84f
4:50pm 2.5ft 5s 4s 2
mph
1018.8mb 86f 84f
3:50pm 2.5ft 5s 5s 4 7 mph 1019.1mb 85f 84f
2:50pm 2.5ft 5s 4s 4 7 mph 1019.4mb 85f 84f
1:50pm 2.5ft 6s 4s 7
mph
1020.1mb 85f 84f
12:50pm 2.5ft 5s 4s 7 9 mph 1020.5mb 85f 84f
11:50am 2.5ft 5s 4s 4 7 mph 1020.6mb 84f 84f
10:50am 2.5ft 6s 4s 4
mph
1020.7mb 84f 84f
9:50am 2.5ft 5s 4s 7 9 mph 1020.3mb 83f 84f
8:50am 2.5ft 5s 4s 9 11 mph 1019.7mb 83f 84f
7:50am 2.5ft 6s 4s 11 13 mph 1019.1mb 83f 83f
6:50am 2.5ft 6s 4s 11
mph
1019mb 83f 83f
5:50am 2.5ft 5s 4s 11 13 mph 1018.4mb 83f 83f
4:50am 2.5ft 6s 4s 11 13 mph 1018.2mb 83f 83f
3:50am 2.5ft 6s 4s 11 13 mph 1017.9mb 83f 83f
2:50am 2.5ft 6s 4s 11 13 mph 1017.9mb 83f 83f
1:50am 2.5ft 6s 4s 9 11 mph 1018.2mb 83f 83f
12:50am 2.5ft 6s 4s 11
mph
1018.6mb 83f 84f
Sun 07/27 11:50pm 2.5ft 6s 4s 9 11 mph 1018.5mb 83f 84f
10:50pm 2.5ft 5s 4s 11 13 mph 1018.6mb 83f 84f
9:50pm 2.5ft 5s 4s 9 11 mph 1018.2mb 83f 84f
8:50pm 3ft 6s 4s 9 11 mph 1017.5mb 83f 84f
7:50pm 3ft 6s 5s 11
mph
1017.4mb 84f 84f
6:50pm 3ft 5s 4s 11 13 mph 1017.5mb 84f 85f
5:50pm 3ft 5s 4s 11 13 mph 1017.6mb 84f 85f
4:50pm 3.5ft 6s 4s 11 13 mph 1017.9mb 84f 85f
3:50pm 2.5ft 6s 4s 11 13 mph 1018.3mb 84f 84f
2:50pm 3ft 6s 4s 11 13 mph 1018.4mb 84f 84f
1:50pm 3ft 5s 4s 11 13 mph 1019mb 83f 84f
12:50pm 3.5ft 6s 5s 11 13 mph 1019.3mb 83f 84f
11:50am 3ft 6s 4s 9 11 mph 1019.3mb 83f 84f
10:50am 3.5ft 5s 4s 9 11 mph 1019mb 83f 84f
9:50am 3.5ft 6s 4s 9 11 mph 1018.8mb 83f 84f
8:50am 3.5ft 6s 4s 11 13 mph 1018.4mb 83f 84f
7:50am 3.5ft 5s 4s 11 13 mph 1017.9mb 83f 84f
6:50am 3.5ft 5s 4s 11 13 mph 1017.6mb 83f 84f
5:50am 3ft 5s 4s 16 18 mph 1017.1mb 83f 84f
4:50am 3.5ft 5s 4s 13 18 mph 1016.6mb 83f 83f
3:50am 3ft 6s 4s 16 18 mph 1016.8mb 83f 83f
2:50am 3ft 6s 4s 13 16 mph 1017mb 83f 83f
1:50am 3ft 5s 4s 11 13 mph 1017.4mb 83f 84f
12:50am 3ft 5s 4s 13 16 mph 1017.4mb 83f 84f
Sat 07/26 11:50pm 3ft 5s 4s 13 16 mph 1017.5mb 83f 84f
10:50pm 3ft 5s 4s 13 16 mph 1017.6mb 83f 84f